Regional Weather Roundup
Issued by NWS Upton, NY

Current Version | Previous Version | Graphics & Text | Print | Product List | Glossary Off
Versions: 1 2 3 4 5 6 7 8 9 10 11 12 13 14 15 16 17 18 19 20 21 22 23 24 25 26 27 28 29 30 31 32 33 34 35 36 37 38 39 40 41 42 43 44 45 46 47 48 49 50

000
ASUS41 KOKX 220705
RWROKX
REGIONAL WEATHER ROUNDUP
NATIONAL WEATHER SERVICE NEW YORK NY
300 AM EDT FRI AUG 22 2014

NOTE: "FAIR" INDICATES FEW OR NO CLOUDS BELOW 12,000 FEET WITH NO
SIGNIFICANT WEATHER AND/OR OBSTRUCTIONS TO VISIBILITY.

NYZ071-072-176-178-NJZ106-104-220800-
NEW YORK CITY METRO AREA


CITY           SKY/WX    TMP DP  RH WIND       PRES   REMARKS
CENTRAL PARK   CLOUDY    67  65  93 S6        30.05S FOG
LAGUARDIA APRT CLOUDY    68  64  87 SE3       30.02R
KENNEDY INTL   RAIN      69  65  86 NE3       30.03R
NEWARK/LIBERTY LGT RAIN  67  63  87 SE6       30.02F
BRNX BOT. GARD   N/A     66  64  94 E2        30.03F
TETERBORO      LGT RAIN  69  63  81 CALM      30.02R
$$

NYZ177-179-078>081-220800-
LONG ISLAND NEW YORK

CITY           SKY/WX    TMP DP  RH WIND       PRES   REMARKS
FARMINGDALE    LGT RAIN  67  65  93 SE6       30.02R
ISLIP          LGT RAIN  68  66  93 CALM      30.02S
SHIRLEY        LGT RAIN  67  65  93 CALM      30.04S
WESTHAMPTON    LGT RAIN  67  63  87 SE3       30.05F
MONTAUK POINT    N/A     68  60  75 E3        30.06R
$$

NYZ052-065-067-220800-
HUDSON VALLEY

CITY           SKY/WX    TMP DP  RH WIND       PRES   REMARKS
WHITE PLAINS   CLOUDY    66  64  93 SE5       30.03S
NEWBURGH       MOCLDY    66  64  94 SE6       30.03
MONTGOMERY     CLOUDY    63  62  97 CALM      30.02S FOG
POUGHKEEPSIE   CLOUDY    68  65  90 SE3       30.01S
ALBANY         MOCLDY    67  63  87 CALM      30.02R
$$

NJZ001-105-106-008-010-013-015-019>022-104-220800-
NEW JERSEY

CITY           SKY/WX    TMP DP  RH WIND       PRES   REMARKS
NEWARK/LIBERTY LGT RAIN  67  63  87 SE6       30.02F
TETERBORO      LGT RAIN  69  63  81 CALM      30.02R
CALDWELL       CLOUDY    65  63  93 SE6       30.02S
MORRISTOWN     CLOUDY    66  64  94 CALM      30.01S
SOMERVILLE     LGT RAIN  66  64  93 CALM      29.99S
LINDEN         RAIN      71  67  89 SE6       30.03R
SUSSEX         CLOUDY    68  64  87 NE3         N/A
ANDOVER          N/A     65  64  97 CALM      30.03R
TRENTON        CLOUDY    67  65  93 NE5       29.98F
MILLVILLE      MOCLDY    68  66  93 E3        29.95F
ATLANTIC CITY  CLOUDY    73  69  87 SE3       29.96F
WRIGHTSTOWN    LGT RAIN  66  66 100 E6        29.98S
TOMS RIVER     CLOUDY    66  64  94 E5        30.01F
BELMAR         CLOUDY    66  63  88 SE14      29.97F
$$

PAZ047>061-062-071-220800-
EASTERN PENNSYLVANIA

CITY           SKY/WX    TMP DP  RH WIND       PRES   REMARKS
PHILADELPHIA   RAIN      70  67  90 NE14      29.99R
ALLENTOWN      RAIN      67  65  93 NE7       30.01S FOG
SCRANTON       CLOUDY    69  65  86 E5        30.00S
$$

CTZ002-004>006-009-010-012-RIZ004-006-007-MAZ004-011-015-220800-
SOUTHERN NEW ENGLAND
 IN CT

CITY           SKY/WX    TMP DP  RH WIND       PRES   REMARKS
BRADLEY INTL   CLOUDY    66  63  90 E3        30.04S
HARTFORD       CLOUDY    66  62  87 CALM      30.04F
DANBURY        CLOUDY    66  63  90 VRB3      30.05S
WTRBRY/OXFORD  CLOUDY    64  61  88 SE3       30.06F
BRIDGEPORT     CLOUDY    67  63  87 S6        30.04R
MERIDEN        CLOUDY    66  62  87 CALM      30.05R
NEW HAVEN      CLOUDY    70  64  81 CALM      30.04R
CHESTER        PTSUNNY   64  64 100 CALM      30.06S
GROTON         CLOUDY    66  63  90 E7        30.04S
WILLIMANTIC    CLOUDY    67  60  78 E5        30.06S

 IN RI

CITY           SKY/WX    TMP DP  RH WIND       PRES   REMARKS
PROVIDENCE     LGT RAIN  66  63  90 N7        30.07S
BLOCK ISLAND   CLOUDY    66  59  77 E3        30.05S
WESTERLY       CLOUDY    66  61  84 NE3       30.06S

 IN MA

CITY           SKY/WX    TMP DP  RH WIND       PRES   REMARKS
BOSTON         LGT RAIN  66  63  90 N7        30.07F
WORCESTER      FOG       59  59 100 NE6       30.09S VSB 1/4
WESTFIELD      CLOUDY    66  63  90 CALM      30.05S
PROVINCETOWN   CLOUDY    66  63  88 MISG      30.06S
NANTUCKET      FOG       60  59  96 NE6       30.04F VSB 3/4
$$

ANZ330-335-338-340-345-350-353-355-220800-
COASTAL MARINE OBSERVATIONS


STATION/POSITION TIME  SKY/WX   TEMP    WIND        PRES    VSBY  WAVE
                                AIR SEA DIR/SP/G                  HT/PER
                 (UTC)          (F)     (DEG/KT/KT) (MB)    (MI)  (FT/S)
NY HARB ENTRANCE NOT AVBL
4S FIRE IS       NOT AVBL
23SW MTP         0600            69 70              1016.6          3/ 7
HUDSON CANYON    0700            72 73  120/  6/  8 1015.9          3/ 7
EXECUTION ROCKS  0700            69 73  130/  6/  8   N/A
WESTERN LI SOUND 0700            70     170/  6/  8   N/A           1
CENTRAL LI SOUND 0600            70 73  130/  8/ 10   N/A           0
EASTERN LI SOUND 0600            68 68   90/  4/  6   N/A
ROBBINS REEF     0700            67     130/  4/  6   N/A
$$


>>>>>>>>>>>>>>>>>>>>>>>>>>>> KEY <<<<<<<<<<<<<<<<<<<<<<<<<<<
>                                                          <
>     SKY/WX - SKY CONDITION/PRESENT WEATHER               <
>     TMP    - TEMPERATURE IN FAHRENHEIT                   <
>     DP     - DEWPOINT IN FAHRENHEIT                      <
>     RH     - RELATIVE HUMIDITY IN PERCENT                <
>     WIND   - DIRECTION AND SPEED IN MPH                  <
>     PRES   - MEAN SEA LEVEL PRESSURE IN INCHES OF HG     <
>     WCI    - WIND CHILL INDEX                            <
>     VSB    - VISIBILITY IN MILES                         <
>     HX     - HEAT INDEX                                  <
>     TC     - TEMPERATURE IN CELSIUS                      <
>     VRB    - VARIABLE WIND DIRECTION                     <
>                                                          <
>>>>>>>>>>>>>>>>>>>>>>>>>>>> KEY <<<<<<<<<<<<<<<<<<<<<<<<<<<





USA.gov is the U.S. government's official web portal to all federal, state and local government web resources and services.